Location: *
(48.8780°N, 19.2358°E)
Time: 10:55:36
(UTC+00:00)

STARLINK-49 - Pass Details

Date: 18 October 2019
Orbit: 548 x 551 km, 53.0° (Epoch: 13 November)

Event Time Altitude Azimuth Distance (km) Brightness Sun altitude
Rises 18:12:23 0° 280° (W) 2,718 8.6 -24.3°
Reaches altitude 10° 18:14:41 10° 286° (WNW) 1,825 7.3 -24.7°
Enters shadow 18:18:18 44° 342° (NNW) 762 4.4 -25.2°
